[[[{"header":{"parameterUnit":"kt","parameterCategory":2,"dx":1,"dy":1,"la1":30.253999710083008,"la2":30.299108505249023,"lo1":-89.0895004272461,"lo2":-89.04439544677734,"nx":28,"ny":28,"refTime":"2022-10-12T21:00:00:Z","depth":0,"parameterNumber":1,"parameterNumberName":"U-component_of_WINDS"},"data":[1.74,1.7518,1.752,1.7656,1.7681,1.7775,1.7809,1.7854,1.7891,1.8003,1.8068,1.8083,1.8122,1.8201,1.8273,1.8279,1.831,1.8347,1.8349,1.8174,1.815,1.8127,1.81,1.8354,1.8354,1.853,1.8532,1.8533,1.7267,1.7293,1.7365,1.7438,1.75,1.7464,1.7519,1.7574,1.7659,1.7706,1.777,1.787,1.795,1.7977,1.8055,1.8111,1.81,1.8131,1.8129,1.8137,1.7949,1.792,1.8139,1.8139,1.8139,1.8138,1.8138,1.8138,1.7025,1.7095,1.7141,1.722,1.7258,1.7307,1.7375,1.7393,1.7465,1.7546,1.7537,1.7634,1.7683,1.778,1.7813,1.789,1.7856,1.7893,1.7903,1.7913,1.7924,1.767,1.7903,1.7902,1.7902,1.7901,1.7901,0,1.685,1.6847,1.6918,1.6989,1.7047,1.7104,1.7156,1.7199,1.7198,1.7258,1.7345,1.7397,1.7498,1.7582,1.7657,1.7686,1.7659,1.7656,1.7682,1.769,1.7686,1.7691,1.7387,1.7651,1.7649,1.7647,1.7646,1.7645,1.6608,1.669,1.6741,1.679,1.682,1.69,1.6949,1.6941,1.6994,1.7058,1.7122,1.7205,1.7272,1.7414,1.7437,1.7514,1.7503,1.7604,1.7515,1.7517,1.7508,1.7504,1.7513,1.7623,1.7626,1.7628,1.763,0,1.6472,1.6478,1.6607,1.665,1.6663,1.675,1.6787,1.6859,1.6869,1.6969,1.6992,1.7011,1.7098,1.7106,1.7208,1.721,1.7354,1.7339,1.7336,1.7335,1.7427,1.742,1.7722,1.7762,1.7496,1.7499,1.7501,0,1.627,1.6379,1.6382,1.6457,1.6577,1.6568,1.6687,1.6709,1.6752,1.683,1.6799,1.6874,1.6872,1.6948,1.6951,1.707,1.7089,1.7099,1.7099,1.7104,1.7103,1.7136,1.7125,1.7093,1.7092,1.709,1.7089,0,1.606,1.6189,1.631,1.6341,1.64,1.6457,1.6484,1.6533,1.6582,1.6646,1.6678,1.6754,1.6797,1.6856,1.686,1.68,1.7005,1.6924,1.7016,1.7016,1.7065,1.7063,1.7324,1.7087,1.7087,1.7086,1.7086,0,1.59,1.5964,1.6138,1.6186,1.6221,1.6301,1.6375,1.6446,1.6499,1.6506,1.6557,1.654,1.6644,1.6562,1.6705,1.6626,1.667,1.6688,1.6695,1.6709,1.6618,1.6769,1.7014,1.7042,1.6715,1.6712,1.6709,0,1.5658,1.5836,1.583,1.5996,1.608,1.604,1.6129,1.6178,1.6194,1.6268,1.6286,1.6372,1.6313,1.6342,1.6411,1.6435,1.6538,1.6421,1.6532,1.6536,1.6521,1.6746,1.6783,1.6958,1.6669,1.6674,1.6677,0,1.5473,1.5543,1.5574,1.561,1.5672,1.5743,1.5845,1.5927,1.5977,1.6035,1.6123,1.6242,1.6203,1.6251,1.6246,1.6318,1.6468,1.6268,1.6269,1.6305,1.665,1.6684,1.6713,1.6449,1.6453,1.6457,1.6645,0,1.5233,1.5324,1.5405,1.5486,1.5541,1.5646,1.5655,1.5712,1.57,1.5717,1.5844,1.589,1.5977,1.6012,1.6004,1.6165,1.6141,1.6099,1.6025,1.6171,1.6233,1.6259,1.593,1.5928,1.5926,1.5924,0,0,1.5002,1.5133,1.5125,1.5224,1.5271,1.523,1.5342,1.5383,1.5469,1.5503,1.546,1.5637,1.5678,1.5832,1.5878,1.5913,1.5944,1.5894,1.61,1.612,1.6138,1.6205,1.6231,1.5921,1.592,1.592,1.5919,0,1.4918,1.4955,1.5065,1.5107,1.5169,1.518,1.5206,1.5262,1.5278,1.5403,1.5372,1.5449,1.5593,1.564,1.5683,1.5873,1.5848,1.5899,1.5999,1.6082,1.6103,1.6123,1.6193,1.6218,1.5915,1.5915,1.5915,0,1.4739,1.4779,1.4833,1.4936,1.4978,1.5066,1.4987,1.5084,1.515,1.5106,1.5232,1.5259,1.5323,1.5468,1.5533,1.5497,1.576,1.5679,1.5691,1.57,1.5781,1.5807,1.5831,1.5522,1.5521,1.552,0,0,1.4666,1.475,1.4793,1.4919,1.4947,1.4967,1.5016,1.5011,1.5067,1.5091,1.5127,1.5184,1.5267,1.5323,1.5402,1.5559,1.5573,1.563,1.5649,1.5664,1.5681,1.5766,1.5792,1.5514,1.5514,1.5514,0,0,1.4632,1.4686,1.4664,1.4812,1.4866,1.4919,1.4997,1.4973,1.5046,1.5035,1.5034,1.505,1.5185,1.5215,1.5141,1.5377,1.5302,1.532,1.5353,1.5377,1.5395,1.5387,1.5072,0,0,0,0,0,1.4552,1.4678,1.4658,1.4685,1.4818,1.4929,1.4947,1.4947,1.4893,1.4955,1.4981,1.495,1.5174,1.5109,1.5136,1.522,1.5445,1.5457,1.5469,1.5549,1.5573,1.5594,0,0,0,0,0,0,1.4562,1.4594,1.4655,1.4713,1.4743,1.4925,1.4834,1.4838,1.4887,1.4879,1.4945,1.4952,1.4956,1.5095,1.512,1.52,1.5063,1.545,1.546,1.547,1.5557,1.5577,1.5595,0,0,0,0,0,1.457,1.4596,1.4811,1.4711,1.4737,1.4768,1.4829,1.4832,1.487,1.4912,1.4917,1.4866,1.4958,1.4979,1.511,1.5188,1.5046,1.5055,1.5457,1.5465,1.5472,1.5567,0,0,0,0,0,0,1.4577,1.46,1.4816,1.4824,1.4664,1.4758,1.4772,1.4826,1.49,1.4906,1.4832,1.4825,1.4961,1.4977,1.4993,1.5184,1.5032,1.5042,1.5048,1.5463,1.5469,1.5475,0,0,0,0,0,0,1.4586,1.4607,1.482,1.476,1.4761,1.4748,1.4762,1.4873,1.4901,1.4816,1.4812,1.4828,1.4938,1.4976,1.4989,1.5163,1.5022,1.5031,1.5037,1.5041,1.5468,1.5473,0,0,0,0,0,0,1.4595,1.4613,1.4758,1.4759,1.476,1.485,1.4847,1.4985,1.4847,1.4813,1.4835,1.483,1.4938,1.4951,1.4986,1.5155,1.5161,1.5022,1.5028,1.5032,1.5035,0,0,0,0,0,0,0,1.4602,1.4481,1.4768,1.4758,1.4759,1.4898,1.49,1.4903,1.4846,1.4841,1.4837,1.4832,1.4971,1.498,1.499,1.5149,0,0,1.5021,1.5025,0,0,0,0,0,0,0,0,1.4473,1.4479,1.4768,1.477,1.4771,1.4899,1.49,1.4902,1.4845,1.4842,1.4838,1.4834,1.4973,1.4981,1.4989,0,0,0,0,0,0,0,0,0,0,0,0,0,0,0,1.4768,1.477,0,1.4899,1.49,1.4902,1.4845,1.4842,1.4838,1.4835,1.4975,1.4982,1.4989,0,0,0,0,0,0,0,0,0,0,0,0,0,0,0,0,0,0,0,0,0,0,0,0,0,0,0,0,0,0,0,0,0,0,0,0,0,0,0,0,0,0,0,0,0,0,0,0,0,0,0,0,0,0,0,0,0,0,0,0,0,0,0,0,0,0,0,0,0]}],[{"header":{"parameterUnit":"kt","parameterCategory":2,"dx":1,"dy":1,"la1":30.253999710083008,"la2":30.299108505249023,"lo1":-89.0895004272461,"lo2":-89.04439544677734,"nx":28,"ny":28,"refTime":"2022-10-12T21:00:00:Z","depth":0,"parameterNumber":2,"parameterNumberName":"V-component_of_WINDS"},"data":[1.5896,1.6036,1.6028,1.6184,1.6205,1.6309,1.6344,1.6389,1.6423,1.6548,1.6618,1.6627,1.6659,1.6742,1.6818,1.682,1.6849,1.6902,1.6894,1.6668,1.6635,1.6605,1.6567,1.691,1.6911,1.7125,1.7127,1.7129,1.572,1.5741,1.5824,1.5898,1.5967,1.5911,1.5967,1.6028,1.6124,1.617,1.624,1.6351,1.6438,1.6454,1.6536,1.66,1.6577,1.6621,1.6612,1.6617,1.6377,1.6338,1.6638,1.6637,1.6637,1.6637,1.6637,1.6637,1.5397,1.5483,1.5523,1.5613,1.5649,1.57,1.578,1.5789,1.587,1.5956,1.5936,1.6046,1.609,1.619,1.6222,1.6306,1.6256,1.6303,1.6313,1.6323,1.6331,1.6007,1.6322,1.6321,1.6321,1.632,1.6319,0,1.5155,1.5143,1.5223,1.53,1.5366,1.5427,1.5482,1.5532,1.5508,1.5578,1.5676,1.5733,1.5845,1.5936,1.6015,1.604,1.5987,1.5986,1.6016,1.6021,1.6014,1.601,1.561,1.5975,1.5972,1.597,1.5968,1.5967,1.482,1.4926,1.4967,1.5024,1.5052,1.5148,1.5202,1.5173,1.5233,1.5297,1.5376,1.547,1.5542,1.5706,1.5716,1.5801,1.5775,1.5913,1.5788,1.5788,1.5766,1.5757,1.5763,1.5936,1.594,1.5943,1.5946,0,1.463,1.462,1.4781,1.4814,1.4826,1.4937,1.4964,1.5052,1.5053,1.5173,1.5199,1.52,1.53,1.5289,1.5404,1.5394,1.5571,1.5549,1.5551,1.5543,1.566,1.5645,1.6056,1.6104,1.5759,1.5762,1.5765,0,1.4336,1.4478,1.4452,1.4548,1.4702,1.4669,1.4823,1.4838,1.4878,1.4972,1.4913,1.5003,1.4977,1.5065,1.5052,1.5197,1.5221,1.5219,1.5213,1.522,1.5219,1.5247,1.5227,1.5206,1.5204,1.5202,1.5201,0,1.4033,1.4191,1.4345,1.4379,1.443,1.4504,1.4529,1.4574,1.4631,1.4702,1.4737,1.4825,1.4872,1.494,1.4921,1.4835,1.5101,1.4979,1.5098,1.5098,1.5153,1.5148,1.552,1.5198,1.5197,1.5197,1.5196,0,1.3792,1.3865,1.4095,1.4132,1.4175,1.4281,1.436,1.4448,1.4502,1.4499,1.4557,1.4515,1.4647,1.4525,1.4703,1.4595,1.4643,1.4656,1.4665,1.467,1.4531,1.4732,1.5095,1.5127,1.4681,1.4676,1.4673,0,1.3443,1.3674,1.3646,1.3867,1.3971,1.3892,1.4008,1.4059,1.4065,1.4154,1.4163,1.4267,1.4175,1.4205,1.4297,1.4308,1.445,1.4291,1.4412,1.4417,1.439,1.4726,1.4778,1.5018,1.4618,1.4624,1.4628,0,1.317,1.3232,1.3274,1.3308,1.3371,1.3461,1.3597,1.3692,1.3751,1.3819,1.3928,1.4081,1.4012,1.4067,1.4044,1.414,1.4353,1.4056,1.4057,1.4102,1.4593,1.464,1.4681,1.4316,1.4323,1.4328,1.4585,0,1.2791,1.2909,1.3024,1.311,1.3179,1.3321,1.3307,1.3381,1.3348,1.3352,1.3519,1.3563,1.3664,1.3712,1.3685,1.3909,1.3868,1.3799,1.3674,1.3898,1.3981,1.4016,1.355,1.3546,1.3543,1.3541,0,0,1.2454,1.2622,1.259,1.2721,1.2775,1.2693,1.2844,1.2889,1.2984,1.3023,1.2954,1.3174,1.3215,1.3417,1.3486,1.3532,1.3568,1.3493,1.3794,1.3822,1.3848,1.3938,1.3974,1.3535,1.3534,1.3533,1.3532,0,1.2311,1.2353,1.2504,1.2548,1.2613,1.261,1.2647,1.2697,1.2707,1.2874,1.2803,1.2903,1.3086,1.3132,1.318,1.3469,1.3409,1.3503,1.3656,1.3763,1.3796,1.3824,1.3919,1.3954,1.3525,1.3525,1.3526,0,1.2033,1.2069,1.2142,1.2268,1.231,1.2424,1.2289,1.2419,1.2502,1.2409,1.2575,1.2599,1.2665,1.2863,1.2952,1.2892,1.3264,1.315,1.3169,1.3177,1.328,1.3319,1.3354,1.2895,1.2892,1.289,0,0,1.1911,1.2022,1.2053,1.2236,1.2267,1.2267,1.2329,1.2303,1.2363,1.2388,1.2417,1.2479,1.2582,1.2653,1.2751,1.2972,1.298,1.3072,1.3102,1.3126,1.3148,1.3257,1.3296,1.2882,1.2882,1.2882,0,0,1.1853,1.1894,1.1851,1.2062,1.2121,1.2164,1.2276,1.2225,1.2312,1.2294,1.226,1.2276,1.2461,1.249,1.238,1.2705,1.2584,1.261,1.2679,1.2717,1.2746,1.2733,1.2249,0,0,0,0,0,1.1699,1.1888,1.1848,1.1882,1.2043,1.2186,1.2206,1.2181,1.2092,1.218,1.2196,1.2131,1.2421,1.2323,1.2358,1.248,1.2776,1.2795,1.2812,1.2954,1.2993,1.3026,0,0,0,0,0,0,1.1712,1.1753,1.1843,1.1895,1.1931,1.2179,1.2022,1.2021,1.2082,1.2066,1.213,1.2133,1.2116,1.2304,1.2336,1.2451,1.2238,1.2783,1.2799,1.2814,1.2967,1.2999,1.3027,0,0,0,0,0,1.1722,1.1755,1.2021,1.1892,1.1924,1.1934,1.2015,1.2012,1.2059,1.2085,1.2086,1.2034,1.212,1.2145,1.2323,1.2437,1.2216,1.2228,1.2794,1.2806,1.2818,1.2983,0,0,0,0,0,0,1.173,1.1754,1.2026,1.2035,1.1819,1.192,1.1934,1.2006,1.2074,1.2077,1.1987,1.1974,1.2125,1.2143,1.2163,1.2434,1.2198,1.221,1.2218,1.2803,1.2813,1.2822,0,0,0,0,0,0,1.1736,1.1762,1.2031,1.194,1.1938,1.1907,1.192,1.207,1.2076,1.1972,1.1963,1.1981,1.2096,1.2144,1.2158,1.2394,1.2184,1.2196,1.2204,1.2209,1.2811,1.2819,0,0,0,0,0,0,1.1747,1.1769,1.1937,1.1936,1.1934,1.2028,1.2038,1.2206,1.1996,1.197,1.1976,1.1967,1.2099,1.2113,1.2156,1.2385,1.2391,1.2184,1.2192,1.2198,1.2202,0,0,0,0,0,0,0,1.1755,1.1612,1.1976,1.1933,1.193,1.2114,1.2116,1.2119,1.1994,1.1986,1.1978,1.1971,1.2118,1.213,1.2143,1.2378,0,0,1.2183,1.2189,0,0,0,0,0,0,0,0,1.1602,1.161,1.1976,1.1978,1.1979,1.2114,1.2116,1.2118,1.1993,1.1986,1.198,1.1974,1.2121,1.2131,1.2142,0,0,0,0,0,0,0,0,0,0,0,0,0,0,0,1.1976,1.1977,0,1.2115,1.2116,1.2118,1.1992,1.1987,1.1981,1.1977,1.2124,1.2133,1.2141,0,0,0,0,0,0,0,0,0,0,0,0,0,0,0,0,0,0,0,0,0,0,0,0,0,0,0,0,0,0,0,0,0,0,0,0,0,0,0,0,0,0,0,0,0,0,0,0,0,0,0,0,0,0,0,0,0,0,0,0,0,0,0,0,0,0,0,0,0]}]]]